Time,TemperatureF,DewpointF,PressureIn,WindDirection,WindDirectionDegrees,WindSpeedMPH,WindSpeedGustMPH,Humidity,HourlyPrecipIn,Conditions,Clouds,dailyrainin,SoftwareType,DateUTC
2013-08-25 00:01:00,70.2,55.6,30.39,East,100,4.0,5.8,60,0.00,,---,0.00,VWS V14.01,2013-08-25 04:01:00,
2013-08-25 00:03:00,70.0,55.5,30.39,East,97,4.0,6.3,60,0.00,,---,0.00,VWS V14.01,2013-08-25 04:03:00,
2013-08-25 00:06:00,70.0,55.0,30.39,East,88,5.4,5.4,59,0.00,,---,0.00,VWS V14.01,2013-08-25 04:06:00,
2013-08-25 00:11:00,70.0,54.5,30.39,East,91,4.0,4.0,58,0.00,,---,0.00,VWS V14.01,2013-08-25 04:11:00,
2013-08-25 00:16:00,70.0,54.1,30.39,ESE,103,4.9,5.4,57,0.00,,---,0.00,VWS V14.01,2013-08-25 04:16:00,
2013-08-25 00:21:00,69.8,53.9,30.39,East,95,3.6,6.3,57,0.00,,---,0.00,VWS V14.01,2013-08-25 04:21:00,
2013-08-25 00:26:00,69.8,53.9,30.39,East,91,4.9,4.9,57,0.00,,---,0.00,VWS V14.01,2013-08-25 04:26:00,
2013-08-25 00:31:00,69.8,53.9,30.39,East,92,4.0,4.9,57,0.00,,---,0.00,VWS V14.01,2013-08-25 04:31:00,
2013-08-25 00:36:00,69.6,53.2,30.39,ESE,104,4.0,4.0,56,0.00,,---,0.00,VWS V14.01,2013-08-25 04:36:00,
2013-08-25 00:41:00,69.6,52.8,30.39,ENE,78,5.4,5.4,55,0.00,,---,0.00,VWS V14.01,2013-08-25 04:41:00,
2013-08-25 00:46:00,69.6,52.3,30.39,East,84,4.9,5.4,54,0.00,,---,0.00,VWS V14.01,2013-08-25 04:46:00,
2013-08-25 00:51:00,69.6,52.8,30.39,ESE,116,5.4,5.4,55,0.00,,---,0.00,VWS V14.01,2013-08-25 04:51:00,
2013-08-25 00:56:00,69.6,52.3,30.39,ESE,112,5.4,5.8,54,0.00,,---,0.00,VWS V14.01,2013-08-25 04:56:00,
2013-08-25 01:01:00,69.6,52.3,30.39,East,100,5.8,5.8,54,0.00,,---,0.00,VWS V14.01,2013-08-25 05:01:00,
2013-08-25 01:06:00,69.6,52.3,30.39,East,100,5.4,6.3,54,0.00,,---,0.00,VWS V14.01,2013-08-25 05:06:00,
2013-08-25 01:11:00,69.6,52.3,30.39,East,94,2.7,3.6,54,0.00,,---,0.00,VWS V14.01,2013-08-25 05:11:00,
2013-08-25 01:16:00,69.4,52.1,30.39,East,87,5.8,5.8,54,0.00,,---,0.00,VWS V14.01,2013-08-25 05:16:00,
2013-08-25 01:21:00,69.4,52.1,30.39,East,95,3.6,3.6,54,0.00,,---,0.00,VWS V14.01,2013-08-25 05:21:00,
2013-08-25 01:26:00,69.6,52.3,30.39,East,88,5.8,6.3,54,0.00,,---,0.00,VWS V14.01,2013-08-25 05:26:00,
2013-08-25 01:31:00,69.6,52.8,30.39,East,91,8.1,8.1,55,0.00,,---,0.00,VWS V14.01,2013-08-25 05:31:00,
2013-08-25 01:36:00,69.6,52.3,30.39,ENE,69,5.4,5.4,54,0.00,,---,0.00,VWS V14.01,2013-08-25 05:36:00,
2013-08-25 01:41:00,69.6,52.3,30.39,ESE,107,5.8,6.3,54,0.00,,---,0.00,VWS V14.01,2013-08-25 05:41:00,
2013-08-25 01:46:00,69.4,52.1,30.39,East,86,8.3,10.1,54,0.00,,---,0.00,VWS V14.01,2013-08-25 05:46:00,
2013-08-25 01:51:00,69.4,52.6,30.39,ESE,105,10.1,10.1,55,0.00,,---,0.00,VWS V14.01,2013-08-25 05:51:00,
2013-08-25 01:56:00,69.4,52.1,30.39,East,88,8.7,8.7,54,0.00,,---,0.00,VWS V14.01,2013-08-25 05:56:00,
2013-08-25 02:01:00,69.4,51.6,30.39,ESE,109,8.3,8.3,53,0.00,,---,0.00,VWS V14.01,2013-08-25 06:01:00,
2013-08-25 02:06:00,69.6,52.3,30.39,East,82,6.7,6.7,54,0.00,,---,0.00,VWS V14.01,2013-08-25 06:06:00,
2013-08-25 02:11:00,69.4,52.1,30.39,ESE,102,4.9,7.6,54,0.00,,---,0.00,VWS V14.01,2013-08-25 06:11:00,
2013-08-25 02:16:00,69.4,52.6,30.39,East,88,7.6,9.2,55,0.00,,---,0.00,VWS V14.01,2013-08-25 06:16:00,
2013-08-25 02:21:00,69.4,51.6,30.39,East,91,8.1,8.1,53,0.00,,---,0.00,VWS V14.01,2013-08-25 06:21:00,
2013-08-25 02:26:00,69.4,52.1,30.39,East,85,8.7,8.7,54,0.00,,---,0.00,VWS V14.01,2013-08-25 06:26:00,
2013-08-25 02:31:00,69.4,52.6,30.36,ESE,108,5.4,5.8,55,0.00,,---,0.00,VWS V14.01,2013-08-25 06:31:00,
2013-08-25 02:36:00,69.4,53.1,30.36,East,85,7.2,7.2,56,0.00,,---,0.00,VWS V14.01,2013-08-25 06:36:00,
2013-08-25 02:41:00,69.3,52.4,30.36,East,97,2.7,4.9,55,0.00,,---,0.00,VWS V14.01,2013-08-25 06:41:00,
2013-08-25 02:46:00,69.3,52.9,30.36,ESE,103,8.7,8.7,56,0.00,,---,0.00,VWS V14.01,2013-08-25 06:46:00,
2013-08-25 02:51:00,69.3,51.9,30.36,SE,126,8.3,8.3,54,0.00,,---,0.00,VWS V14.01,2013-08-25 06:51:00,
2013-08-25 02:56:00,69.3,52.4,30.36,East,86,8.7,8.7,55,0.00,,---,0.00,VWS V14.01,2013-08-25 06:56:00,
2013-08-25 03:01:00,69.3,51.9,30.36,East,95,6.7,6.7,54,0.00,,---,0.00,VWS V14.01,2013-08-25 07:01:00,
2013-08-25 03:06:00,69.3,52.4,30.36,SE,127,3.6,5.8,55,0.00,,---,0.00,VWS V14.01,2013-08-25 07:06:00,
2013-08-25 03:11:00,69.1,53.2,30.36,East,98,5.4,5.4,57,0.00,,---,0.00,VWS V14.01,2013-08-25 07:11:00,
2013-08-25 03:16:00,69.1,52.7,30.36,ESE,103,5.8,7.2,56,0.00,,---,0.00,VWS V14.01,2013-08-25 07:16:00,
2013-08-25 03:21:00,69.1,53.2,30.36,East,99,5.8,5.8,57,0.00,,---,0.00,VWS V14.01,2013-08-25 07:21:00,
2013-08-25 03:26:00,69.1,53.2,30.36,ESE,116,5.4,5.4,57,0.00,,---,0.00,VWS V14.01,2013-08-25 07:26:00,
2013-08-25 03:31:00,69.1,53.2,30.36,ESE,111,4.9,5.8,57,0.00,,---,0.00,VWS V14.01,2013-08-25 07:31:00,
2013-08-25 03:36:00,68.9,53.1,30.36,ESE,106,5.4,6.3,57,0.00,,---,0.00,VWS V14.01,2013-08-25 07:36:00,
2013-08-25 03:41:00,68.9,52.1,30.36,ESE,105,5.8,8.3,55,0.00,,---,0.00,VWS V14.01,2013-08-25 07:41:00,
2013-08-25 03:46:00,68.9,52.6,30.36,East,88,6.3,6.3,56,0.00,,---,0.00,VWS V14.01,2013-08-25 07:46:00,
2013-08-25 03:51:00,68.9,53.1,30.36,East,86,7.2,7.2,57,0.00,,---,0.00,VWS V14.01,2013-08-25 07:51:00,
2013-08-25 03:56:00,68.9,53.5,30.36,ESE,104,4.9,7.2,58,0.00,,---,0.00,VWS V14.01,2013-08-25 07:56:00,
2013-08-25 04:01:00,68.9,54.0,30.36,ESE,120,4.9,6.7,59,0.00,,---,0.00,VWS V14.01,2013-08-25 08:01:00,
2013-08-25 04:06:00,68.9,54.0,30.36,East,95,3.1,5.4,59,0.00,,---,0.00,VWS V14.01,2013-08-25 08:06:00,
2013-08-25 04:11:00,68.7,54.3,30.36,East,88,7.6,8.1,60,0.00,,---,0.00,VWS V14.01,2013-08-25 08:11:00,
2013-08-25 04:16:00,68.7,53.8,30.36,ESE,108,4.0,4.9,59,0.00,,---,0.00,VWS V14.01,2013-08-25 08:16:00,
2013-08-25 04:21:00,68.7,53.8,30.36,ESE,122,5.8,5.8,59,0.00,,---,0.00,VWS V14.01,2013-08-25 08:21:00,
2013-08-25 04:26:00,68.7,53.8,30.36,ESE,115,6.3,6.3,59,0.00,,---,0.00,VWS V14.01,2013-08-25 08:26:00,
2013-08-25 04:31:00,68.7,54.3,30.36,ESE,109,2.7,6.3,60,0.00,,---,0.00,VWS V14.01,2013-08-25 08:31:00,
2013-08-25 04:36:00,68.7,54.3,30.36,ESE,116,5.8,5.8,60,0.00,,---,0.00,VWS V14.01,2013-08-25 08:36:00,
2013-08-25 04:41:00,68.5,53.7,30.36,East,79,3.1,4.9,59,0.00,,---,0.00,VWS V14.01,2013-08-25 08:41:00,
2013-08-25 04:46:00,68.5,53.2,30.39,East,98,8.7,8.7,58,0.00,,---,0.00,VWS V14.01,2013-08-25 08:46:00,
2013-08-25 04:51:00,68.5,52.7,30.39,SE,139,6.3,7.2,57,0.00,,---,0.00,VWS V14.01,2013-08-25 08:51:00,
2013-08-25 04:56:00,68.5,52.7,30.39,ESE,103,3.6,5.8,57,0.00,,---,0.00,VWS V14.01,2013-08-25 08:56:00,
2013-08-25 05:01:00,68.5,53.2,30.39,East,93,4.0,4.0,58,0.00,,---,0.00,VWS V14.01,2013-08-25 09:01:00,
2013-08-25 05:06:00,68.5,53.7,30.39,East,96,4.0,6.3,59,0.00,,---,0.00,VWS V14.01,2013-08-25 09:06:00,
2013-08-25 05:11:00,68.5,53.7,30.39,ESE,115,4.9,5.8,59,0.00,,---,0.00,VWS V14.01,2013-08-25 09:11:00,
2013-08-25 05:16:00,68.5,53.7,30.39,East,100,3.6,3.6,59,0.00,,---,0.00,VWS V14.01,2013-08-25 09:16:00,
2013-08-25 05:22:00,68.5,53.7,30.39,East,94,3.1,3.6,59,0.00,,---,0.00,VWS V14.01,2013-08-25 09:22:00,
2013-08-25 05:27:00,68.4,53.5,30.39,East,101,4.9,4.9,59,0.00,,---,0.00,VWS V14.01,2013-08-25 09:27:00,
2013-08-25 05:32:00,68.4,53.5,30.39,ESE,123,4.0,6.3,59,0.00,,---,0.00,VWS V14.01,2013-08-25 09:32:00,
2013-08-25 05:37:00,68.4,54.0,30.39,East,89,3.6,4.0,60,0.00,,---,0.00,VWS V14.01,2013-08-25 09:37:00,
2013-08-25 05:42:00,68.2,53.8,30.39,ENE,74,3.1,3.1,60,0.00,,---,0.00,VWS V14.01,2013-08-25 09:42:00,
2013-08-25 05:47:00,67.8,53.9,30.39,NE,48,0.0,0.0,61,0.00,,---,0.00,VWS V14.01,2013-08-25 09:47:00,
2013-08-25 05:52:00,67.3,54.7,30.39,NNE,12,0.0,0.0,64,0.00,,---,0.00,VWS V14.01,2013-08-25 09:52:00,
2013-08-25 05:57:00,66.7,54.6,30.39,NNE,12,0.0,0.0,65,0.00,,---,0.00,VWS V14.01,2013-08-25 09:57:00,
2013-08-25 06:02:00,66.6,55.3,30.42,North,349,0.0,0.0,67,0.00,,---,0.00,VWS V14.01,2013-08-25 10:02:00,
2013-08-25 06:07:00,66.4,55.1,30.42,North,357,0.0,0.0,67,0.00,,---,0.00,VWS V14.01,2013-08-25 10:07:00,
2013-08-25 06:12:00,66.2,55.3,30.42,North,0,0.0,2.7,68,0.00,,---,0.00,VWS V14.01,2013-08-25 10:12:00,
2013-08-25 06:17:00,65.8,55.8,30.42,North,353,2.7,2.7,70,0.00,,---,0.00,VWS V14.01,2013-08-25 10:17:00,
2013-08-25 06:22:00,65.7,56.0,30.42,NNW,348,0.0,3.1,71,0.00,,---,0.00,VWS V14.01,2013-08-25 10:22:00,
2013-08-25 06:27:00,65.1,55.5,30.42,North,353,0.0,0.0,71,0.00,,---,0.00,VWS V14.01,2013-08-25 10:27:00,
2013-08-25 06:32:00,64.8,55.5,30.42,North,0,0.0,2.2,72,0.00,,---,0.00,VWS V14.01,2013-08-25 10:32:00,
2013-08-25 06:37:00,64.8,55.9,30.42,North,353,4.0,4.0,73,0.00,,---,0.00,VWS V14.01,2013-08-25 10:37:00,
2013-08-25 06:42:00,64.6,55.7,30.42,North,353,2.7,3.6,73,0.00,,---,0.00,VWS V14.01,2013-08-25 10:42:00,
2013-08-25 06:47:00,64.4,55.9,30.42,North,353,3.1,3.1,74,0.00,,---,0.00,VWS V14.01,2013-08-25 10:47:00,
2013-08-25 06:52:00,64.2,56.1,30.42,NNW,335,2.7,5.4,75,0.00,,---,0.00,VWS V14.01,2013-08-25 10:52:00,
2013-08-25 06:57:00,64.6,56.5,30.42,North,357,5.4,5.4,75,0.00,,---,0.00,VWS V14.01,2013-08-25 10:57:00,
2013-08-25 07:02:00,64.8,56.7,30.42,NNE,17,4.9,5.8,75,0.00,,---,0.00,VWS V14.01,2013-08-25 11:02:00,
2013-08-25 07:07:00,65.1,57.0,30.42,North,353,2.7,3.6,75,0.00,,---,0.00,VWS V14.01,2013-08-25 11:07:00,
2013-08-25 07:12:00,65.1,57.0,30.42,NNW,343,2.7,3.6,75,0.00,,---,0.00,VWS V14.01,2013-08-25 11:12:00,
2013-08-25 07:17:00,65.5,57.0,30.42,NNE,29,4.9,4.9,74,0.00,,---,0.00,VWS V14.01,2013-08-25 11:17:00,
2013-08-25 07:22:00,65.7,57.2,30.42,NNE,18,2.7,4.0,74,0.00,,---,0.00,VWS V14.01,2013-08-25 11:22:00,
2013-08-25 07:27:00,66.0,57.1,30.42,NNE,23,3.6,4.5,73,0.00,,---,0.00,VWS V14.01,2013-08-25 11:27:00,
2013-08-25 07:32:00,66.4,57.1,30.45,North,7,4.0,5.8,72,0.00,,---,0.00,VWS V14.01,2013-08-25 11:32:00,
2013-08-25 07:37:00,66.9,57.6,30.45,North,0,0.0,4.9,72,0.00,,---,0.00,VWS V14.01,2013-08-25 11:37:00,
2013-08-25 07:42:00,67.3,58.0,30.45,NW,305,0.0,3.6,72,0.00,,---,0.00,VWS V14.01,2013-08-25 11:42:00,
2013-08-25 07:47:00,67.6,58.3,30.45,NNE,25,0.0,3.1,72,0.00,,---,0.00,VWS V14.01,2013-08-25 11:47:00,
2013-08-25 07:52:00,67.8,58.1,30.45,North,8,4.0,4.0,71,0.00,,---,0.00,VWS V14.01,2013-08-25 11:52:00,
2013-08-25 07:57:00,68.2,58.4,30.45,NE,36,0.0,3.1,71,0.00,,---,0.00,VWS V14.01,2013-08-25 11:57:00,
2013-08-25 08:02:00,68.0,57.9,30.45,NNE,26,3.1,3.6,70,0.00,,---,0.00,VWS V14.01,2013-08-25 12:02:00,
2013-08-25 08:07:00,68.2,58.0,30.45,West,262,4.0,4.0,70,0.00,,---,0.00,VWS V14.01,2013-08-25 12:07:00,
2013-08-25 08:12:00,68.4,57.8,30.45,NNW,346,3.1,5.4,69,0.00,,---,0.00,VWS V14.01,2013-08-25 12:12:00,
2013-08-25 08:17:00,68.9,58.3,30.45,North,357,0.0,2.7,69,0.00,,---,0.00,VWS V14.01,2013-08-25 12:17:00,
2013-08-25 08:22:00,69.4,58.8,30.45,North,0,4.0,4.0,69,0.00,,---,0.00,VWS V14.01,2013-08-25 12:22:00,
2013-08-25 08:27:00,69.6,58.6,30.45,NW,308,4.0,4.0,68,0.00,,---,0.00,VWS V14.01,2013-08-25 12:27:00,
2013-08-25 08:32:00,70.2,59.1,30.45,NNE,25,3.6,3.6,68,0.00,,---,0.00,VWS V14.01,2013-08-25 12:32:00,
2013-08-25 08:37:00,70.7,59.2,30.45,North,357,0.0,6.3,67,0.00,,---,0.00,VWS V14.01,2013-08-25 12:37:00,
2013-08-25 08:42:00,71.1,59.1,30.45,NNE,21,3.6,3.6,66,0.00,,---,0.00,VWS V14.01,2013-08-25 12:42:00,
2013-08-25 08:47:00,71.6,59.2,30.47,NNE,27,3.1,4.9,65,0.00,,---,0.00,VWS V14.01,2013-08-25 12:47:00,
2013-08-25 08:52:00,72.1,59.7,30.47,NNE,30,4.0,4.0,65,0.00,,---,0.00,VWS V14.01,2013-08-25 12:52:00,
2013-08-25 08:57:00,72.9,60.0,30.47,ENE,70,2.7,5.8,64,0.00,,---,0.00,VWS V14.01,2013-08-25 12:57:00,
2013-08-25 09:02:00,73.4,60.0,30.45,NNE,22,4.0,4.0,63,0.00,,---,0.00,VWS V14.01,2013-08-25 13:02:00,
2013-08-25 09:07:00,73.9,60.1,30.45,NE,36,2.7,4.0,62,0.00,,---,0.00,VWS V14.01,2013-08-25 13:07:00,
2013-08-25 09:12:00,74.3,60.0,30.45,North,5,3.1,4.9,61,0.00,,---,0.00,VWS V14.01,2013-08-25 13:12:00,
2013-08-25 09:17:00,75.0,60.2,30.45,NNW,340,4.0,4.0,60,0.00,,---,0.00,VWS V14.01,2013-08-25 13:17:00,
2013-08-25 09:22:00,75.2,59.4,30.45,NNE,28,5.8,5.8,58,0.00,,---,0.00,VWS V14.01,2013-08-25 13:22:00,
2013-08-25 09:27:00,75.4,59.1,30.45,NE,49,5.8,6.3,57,0.00,,---,0.00,VWS V14.01,2013-08-25 13:27:00,
2013-08-25 09:32:00,76.5,59.6,30.45,NE,50,3.6,3.6,56,0.00,,---,0.00,VWS V14.01,2013-08-25 13:32:00,
2013-08-25 09:37:00,76.8,59.5,30.45,NE,49,3.6,4.9,55,0.00,,---,0.00,VWS V14.01,2013-08-25 13:37:00,
2013-08-25 09:42:00,77.0,59.1,30.45,NNE,15,3.1,4.0,54,0.00,,---,0.00,VWS V14.01,2013-08-25 13:42:00,
2013-08-25 09:47:00,77.4,58.9,30.47,NE,51,4.9,5.8,53,0.00,,---,0.00,VWS V14.01,2013-08-25 13:47:00,
2013-08-25 09:52:00,77.7,58.7,30.47,NNW,334,4.9,4.9,52,0.00,,---,0.00,VWS V14.01,2013-08-25 13:52:00,
2013-08-25 09:57:00,78.4,58.8,30.47,North,353,0.0,0.0,51,0.00,,---,0.00,VWS V14.01,2013-08-25 13:57:00,
2013-08-25 10:02:00,78.1,58.0,30.47,NNE,25,2.7,4.5,50,0.00,,---,0.00,VWS V14.01,2013-08-25 14:02:00,
2013-08-25 10:07:00,79.0,57.6,30.47,North,353,3.6,3.6,48,0.00,,---,0.00,VWS V14.01,2013-08-25 14:07:00,
2013-08-25 10:12:00,79.3,57.4,30.47,NE,41,3.6,4.9,47,0.00,,---,0.00,VWS V14.01,2013-08-25 14:12:00,
2013-08-25 10:17:00,79.0,55.2,30.47,NNW,343,0.0,0.0,44,0.00,,---,0.00,VWS V14.01,2013-08-25 14:17:00,
2013-08-25 10:22:00,78.8,55.1,30.47,NW,304,0.0,0.0,44,0.00,,---,0.00,VWS V14.01,2013-08-25 14:22:00,
2013-08-25 10:27:00,79.3,55.6,30.47,East,82,0.0,0.0,44,0.00,,---,0.00,VWS V14.01,2013-08-25 14:27:00,
2013-08-25 10:32:00,80.6,56.1,30.45,West,261,0.0,0.0,43,0.00,,---,0.00,VWS V14.01,2013-08-25 14:32:00,
2013-08-25 10:37:00,80.8,56.2,30.45,NNE,30,0.0,0.0,43,0.00,,---,0.00,VWS V14.01,2013-08-25 14:37:00,
2013-08-25 10:42:00,80.1,54.9,30.45,West,277,2.2,2.7,42,0.00,,---,0.00,VWS V14.01,2013-08-25 14:42:00,
2013-08-25 10:47:00,81.7,57.7,30.47,East,93,0.0,3.1,44,0.00,,---,0.00,VWS V14.01,2013-08-25 14:47:00,
2013-08-25 10:52:00,82.9,58.2,30.47,NE,35,4.9,4.9,43,0.00,,---,0.00,VWS V14.01,2013-08-25 14:52:00,
2013-08-25 10:57:00,83.1,57.7,30.47,SE,126,8.3,8.3,42,0.00,,---,0.00,VWS V14.01,2013-08-25 14:57:00,
2013-08-25 11:02:00,83.3,57.8,30.45,ESE,107,6.3,6.3,42,0.00,,---,0.00,VWS V14.01,2013-08-25 15:02:00,
2013-08-25 11:07:00,83.8,57.7,30.45,East,87,5.8,5.8,41,0.00,,---,0.00,VWS V14.01,2013-08-25 15:07:00,
2013-08-25 11:12:00,84.0,57.1,30.45,East,96,4.0,5.4,40,0.00,,---,0.00,VWS V14.01,2013-08-25 15:12:00,
2013-08-25 11:17:00,84.0,57.1,30.45,East,99,3.6,5.4,40,0.00,,---,0.00,VWS V14.01,2013-08-25 15:17:00,
2013-08-25 11:22:00,85.1,58.1,30.45,SE,126,4.0,4.0,40,0.00,,---,0.00,VWS V14.01,2013-08-25 15:22:00,
2013-08-25 11:27:00,84.7,57.1,30.45,SE,124,4.0,4.0,39,0.00,,---,0.00,VWS V14.01,2013-08-25 15:27:00,
2013-08-25 11:32:00,85.6,57.9,30.45,SE,133,5.8,7.6,39,0.00,,---,0.00,VWS V14.01,2013-08-25 15:32:00,
2013-08-25 11:37:00,86.0,57.5,30.45,SE,126,5.4,5.4,38,0.00,,---,0.00,VWS V14.01,2013-08-25 15:37:00,
2013-08-25 11:42:00,86.4,57.8,30.45,ESE,119,3.6,5.8,38,0.00,,---,0.00,VWS V14.01,2013-08-25 15:42:00,
2013-08-25 11:47:00,85.8,57.3,30.45,SE,130,3.6,6.3,38,0.00,,---,0.00,VWS V14.01,2013-08-25 15:47:00,
2013-08-25 11:52:00,87.1,57.7,30.45,ESE,118,5.4,5.4,37,0.00,,---,0.00,VWS V14.01,2013-08-25 15:52:00,
2013-08-25 11:57:00,86.9,56.8,30.45,SE,128,2.7,4.9,36,0.00,,---,0.00,VWS V14.01,2013-08-25 15:57:00,
2013-08-25 12:02:00,87.1,56.9,30.45,ESE,104,3.6,4.9,36,0.00,,---,0.00,VWS V14.01,2013-08-25 16:02:00,
2013-08-25 12:07:00,87.6,56.6,30.45,ESE,118,5.8,6.3,35,0.00,,---,0.00,VWS V14.01,2013-08-25 16:07:00,
2013-08-25 12:12:00,88.2,57.1,30.45,ESE,113,3.6,3.6,35,0.00,,---,0.00,VWS V14.01,2013-08-25 16:12:00,
2013-08-25 12:17:00,88.2,55.5,30.45,SE,129,4.0,5.4,33,0.00,,---,0.00,VWS V14.01,2013-08-25 16:17:00,
2013-08-25 12:22:00,88.0,55.3,30.45,SE,141,5.8,5.8,33,0.00,,---,0.00,VWS V14.01,2013-08-25 16:22:00,
2013-08-25 12:27:00,87.8,56.0,30.45,SSE,163,4.9,4.9,34,0.00,,---,0.00,VWS V14.01,2013-08-25 16:27:00,
2013-08-25 12:32:00,86.9,55.2,30.45,SSE,162,0.0,4.0,34,0.00,,---,0.00,VWS V14.01,2013-08-25 16:32:00,
2013-08-25 12:37:00,85.8,54.2,30.45,ESE,110,4.0,6.3,34,0.00,,---,0.00,VWS V14.01,2013-08-25 16:37:00,
2013-08-25 12:42:00,87.8,56.0,30.45,SSE,165,0.0,5.4,34,0.00,,---,0.00,VWS V14.01,2013-08-25 16:42:00,
2013-08-25 12:47:00,86.9,54.4,30.45,SE,131,0.0,5.8,33,0.00,,---,0.00,VWS V14.01,2013-08-25 16:47:00,
2013-08-25 12:52:00,87.3,55.5,30.45,SSE,147,5.4,5.4,34,0.00,,---,0.00,VWS V14.01,2013-08-25 16:52:00,
2013-08-25 12:57:00,86.0,53.6,30.45,SSE,150,3.6,4.0,33,0.00,,---,0.00,VWS V14.01,2013-08-25 16:57:00,
2013-08-25 13:02:00,86.5,54.9,30.42,SE,142,5.4,5.4,34,0.00,,---,0.00,VWS V14.01,2013-08-25 17:02:00,
2013-08-25 13:07:00,85.5,53.1,30.42,SSE,162,5.4,5.4,33,0.00,,---,0.00,VWS V14.01,2013-08-25 17:07:00,
2013-08-25 13:12:00,86.2,52.9,30.42,SE,131,5.4,6.3,32,0.00,,---,0.00,VWS V14.01,2013-08-25 17:12:00,
2013-08-25 13:17:00,85.6,53.3,30.45,ESE,120,3.1,3.1,33,0.00,,---,0.00,VWS V14.01,2013-08-25 17:17:00,
2013-08-25 13:22:00,85.8,53.4,30.45,SSW,196,5.4,5.4,33,0.00,,---,0.00,VWS V14.01,2013-08-25 17:22:00,
2013-08-25 13:27:00,85.5,53.1,30.45,South,177,3.1,5.8,33,0.00,,---,0.00,VWS V14.01,2013-08-25 17:27:00,
2013-08-25 13:32:00,87.3,53.8,30.45,ESE,111,3.6,5.4,32,0.00,,---,0.00,VWS V14.01,2013-08-25 17:32:00,
2013-08-25 13:37:00,87.6,53.3,30.45,SSE,150,3.1,4.9,31,0.00,,---,0.00,VWS V14.01,2013-08-25 17:37:00,
2013-08-25 13:42:00,85.5,51.4,30.45,SE,142,6.3,6.3,31,0.00,,---,0.00,VWS V14.01,2013-08-25 17:42:00,
2013-08-25 13:47:00,86.0,52.7,30.42,South,170,3.1,4.9,32,0.00,,---,0.00,VWS V14.01,2013-08-25 17:47:00,
2013-08-25 13:52:00,84.6,51.5,30.42,South,191,5.4,5.8,32,0.00,,---,0.00,VWS V14.01,2013-08-25 17:52:00,
2013-08-25 13:57:00,85.3,52.1,30.42,South,180,5.8,5.8,32,0.00,,---,0.00,VWS V14.01,2013-08-25 17:57:00,
2013-08-25 14:03:00,85.3,52.1,30.42,South,186,2.7,5.4,32,0.00,,---,0.00,VWS V14.01,2013-08-25 18:03:00,
2013-08-25 14:08:00,84.7,51.6,30.42,SSE,155,3.6,5.4,32,0.00,,---,0.00,VWS V14.01,2013-08-25 18:08:00,
2013-08-25 14:13:00,85.6,52.4,30.42,SSE,159,2.7,5.8,32,0.00,,---,0.00,VWS V14.01,2013-08-25 18:13:00,
2013-08-25 14:18:00,85.5,51.4,30.42,SSE,165,4.0,6.3,31,0.00,,---,0.00,VWS V14.01,2013-08-25 18:18:00,
2013-08-25 14:23:00,85.3,52.1,30.42,SSE,152,6.3,6.7,32,0.00,,---,0.00,VWS V14.01,2013-08-25 18:23:00,
2013-08-25 14:28:00,84.6,50.6,30.42,SSE,165,6.3,6.3,31,0.00,,---,0.00,VWS V14.01,2013-08-25 18:28:00,
2013-08-25 14:33:00,84.6,50.6,30.42,South,183,5.4,6.3,31,0.00,,---,0.00,VWS V14.01,2013-08-25 18:33:00,
2013-08-25 14:38:00,84.2,50.3,30.42,SSW,203,6.3,7.6,31,0.00,,---,0.00,VWS V14.01,2013-08-25 18:38:00,
2013-08-25 14:43:00,83.3,49.5,30.42,SSW,196,5.8,6.3,31,0.00,,---,0.00,VWS V14.01,2013-08-25 18:43:00,
2013-08-25 14:48:00,83.5,50.5,30.42,SSE,159,4.9,5.4,32,0.00,,---,0.00,VWS V14.01,2013-08-25 18:48:00,
2013-08-25 14:53:00,83.3,50.4,30.42,SSW,195,8.1,8.1,32,0.00,,---,0.00,VWS V14.01,2013-08-25 18:53:00,
2013-08-25 14:58:00,83.3,50.4,30.42,SSW,196,6.3,6.3,32,0.00,,---,0.00,VWS V14.01,2013-08-25 18:58:00,
2013-08-25 15:03:00,83.8,50.0,30.39,SSW,204,6.3,6.3,31,0.00,,---,0.00,VWS V14.01,2013-08-25 19:03:00,
2013-08-25 15:08:00,84.7,50.8,30.39,South,175,6.3,6.7,31,0.00,,---,0.00,VWS V14.01,2013-08-25 19:08:00,
2013-08-25 15:13:00,85.3,51.2,30.39,SW,219,5.8,5.8,31,0.00,,---,0.00,VWS V14.01,2013-08-25 19:13:00,
2013-08-25 15:18:00,85.1,50.2,30.42,SSW,206,6.3,6.3,30,0.00,,---,0.00,VWS V14.01,2013-08-25 19:18:00,
2013-08-25 15:23:00,85.6,49.8,30.42,SSE,168,3.1,3.1,29,0.00,,---,0.00,VWS V14.01,2013-08-25 19:23:00,
2013-08-25 15:28:00,85.1,49.3,30.42,SW,229,3.1,5.8,29,0.00,,---,0.00,VWS V14.01,2013-08-25 19:28:00,
2013-08-25 15:33:00,84.9,49.2,30.42,South,185,3.6,8.1,29,0.00,,---,0.00,VWS V14.01,2013-08-25 19:33:00,
2013-08-25 15:38:00,85.1,49.3,30.42,SSW,206,5.4,5.4,29,0.00,,---,0.00,VWS V14.01,2013-08-25 19:38:00,
2013-08-25 15:43:00,85.8,49.9,30.42,SSW,196,5.4,5.4,29,0.00,,---,0.00,VWS V14.01,2013-08-25 19:43:00,
2013-08-25 15:48:00,85.5,49.6,30.39,South,190,4.9,6.3,29,0.00,,---,0.00,VWS V14.01,2013-08-25 19:48:00,
2013-08-25 15:53:00,86.0,50.1,30.39,SE,133,5.4,5.4,29,0.00,,---,0.00,VWS V14.01,2013-08-25 19:53:00,
2013-08-25 15:58:00,86.0,50.1,30.39,SSW,207,8.1,8.1,29,0.00,,---,0.00,VWS V14.01,2013-08-25 19:58:00,
2013-08-25 16:03:00,85.5,49.6,30.39,South,175,4.0,6.3,29,0.00,,---,0.00,VWS V14.01,2013-08-25 20:03:00,
2013-08-25 16:08:00,85.1,49.3,30.39,SSE,164,2.7,8.1,29,0.00,,---,0.00,VWS V14.01,2013-08-25 20:08:00,
2013-08-25 16:13:00,85.5,49.6,30.39,South,182,3.1,5.4,29,0.00,,---,0.00,VWS V14.01,2013-08-25 20:13:00,
2013-08-25 16:18:00,85.1,48.4,30.39,South,180,6.3,6.3,28,0.00,,---,0.00,VWS V14.01,2013-08-25 20:18:00,
2013-08-25 16:23:00,84.2,47.6,30.39,South,175,4.9,5.4,28,0.00,,---,0.00,VWS V14.01,2013-08-25 20:23:00,
2013-08-25 16:28:00,84.2,47.6,30.39,SSW,200,6.7,6.7,28,0.00,,---,0.00,VWS V14.01,2013-08-25 20:28:00,
2013-08-25 16:33:00,84.6,47.9,30.39,SSW,204,6.3,6.3,28,0.00,,---,0.00,VWS V14.01,2013-08-25 20:33:00,
2013-08-25 16:38:00,84.0,46.5,30.39,SSW,198,6.3,6.3,27,0.00,,---,0.00,VWS V14.01,2013-08-25 20:38:00,
2013-08-25 16:43:00,83.5,44.0,30.39,SSW,208,5.8,7.6,25,0.00,,---,0.00,VWS V14.01,2013-08-25 20:43:00,
2013-08-25 16:48:00,83.3,44.9,30.39,SW,219,8.1,8.1,26,0.00,,---,0.00,VWS V14.01,2013-08-25 20:48:00,
2013-08-25 16:53:00,83.1,45.7,30.39,SSW,203,5.8,5.8,27,0.00,,---,0.00,VWS V14.01,2013-08-25 20:53:00,
2013-08-25 16:58:00,83.3,46.8,30.39,SSW,192,7.2,7.6,28,0.00,,---,0.00,VWS V14.01,2013-08-25 20:58:00,
2013-08-25 17:03:00,82.8,46.4,30.39,SW,221,5.8,5.8,28,0.00,,---,0.00,VWS V14.01,2013-08-25 21:03:00,
2013-08-25 17:08:00,83.5,47.9,30.39,South,182,6.7,6.7,29,0.00,,---,0.00,VWS V14.01,2013-08-25 21:08:00,
2013-08-25 17:13:00,83.1,46.7,30.39,SSW,205,8.1,8.1,28,0.00,,---,0.00,VWS V14.01,2013-08-25 21:13:00,
2013-08-25 17:18:00,82.9,45.6,30.39,South,172,5.4,6.3,27,0.00,,---,0.00,VWS V14.01,2013-08-25 21:18:00,
2013-08-25 17:23:00,82.6,46.2,30.39,SSW,200,5.8,8.1,28,0.00,,---,0.00,VWS V14.01,2013-08-25 21:23:00,
2013-08-25 17:28:00,81.9,45.6,30.39,SW,215,7.6,8.3,28,0.00,,---,0.00,VWS V14.01,2013-08-25 21:28:00,
2013-08-25 17:33:00,81.9,44.6,30.39,SSW,198,8.3,10.1,27,0.00,,---,0.00,VWS V14.01,2013-08-25 21:33:00,
2013-08-25 17:38:00,81.5,45.3,30.39,SW,221,7.6,9.6,28,0.00,,---,0.00,VWS V14.01,2013-08-25 21:38:00,
2013-08-25 17:43:00,81.3,46.1,30.39,SSW,204,11.0,11.0,29,0.00,,---,0.00,VWS V14.01,2013-08-25 21:43:00,
2013-08-25 17:48:00,80.8,45.6,30.36,SSW,192,8.7,8.7,29,0.00,,---,0.00,VWS V14.01,2013-08-25 21:48:00,
2013-08-25 17:53:00,80.8,45.6,30.36,South,180,8.3,10.1,29,0.00,,---,0.00,VWS V14.01,2013-08-25 21:53:00,
2013-08-25 17:58:00,80.4,46.2,30.36,SSW,194,5.8,8.3,30,0.00,,---,0.00,VWS V14.01,2013-08-25 21:58:00,
2013-08-25 18:03:00,80.2,46.0,30.36,SSE,163,6.3,6.3,30,0.00,,---,0.00,VWS V14.01,2013-08-25 22:03:00,
2013-08-25 18:08:00,80.1,45.9,30.36,SSW,199,8.3,9.6,30,0.00,,---,0.00,VWS V14.01,2013-08-25 22:08:00,
2013-08-25 18:13:00,79.9,46.6,30.36,South,171,5.4,8.1,31,0.00,,---,0.00,VWS V14.01,2013-08-25 22:13:00,
2013-08-25 18:18:00,79.9,46.6,30.36,WSW,241,8.1,10.5,31,0.00,,---,0.00,VWS V14.01,2013-08-25 22:18:00,
2013-08-25 18:23:00,79.9,46.6,30.36,SSW,205,10.1,10.1,31,0.00,,---,0.00,VWS V14.01,2013-08-25 22:23:00,
2013-08-25 18:28:00,79.7,47.3,30.36,SSW,193,8.1,10.1,32,0.00,,---,0.00,VWS V14.01,2013-08-25 22:28:00,
2013-08-25 18:33:00,80.6,48.0,30.36,SSW,202,6.3,6.3,32,0.00,,---,0.00,VWS V14.01,2013-08-25 22:33:00,
2013-08-25 18:38:00,81.9,49.1,30.36,SSW,210,7.6,8.7,32,0.00,,---,0.00,VWS V14.01,2013-08-25 22:38:00,
2013-08-25 18:43:00,83.8,50.9,30.36,SW,227,5.8,5.8,32,0.00,,---,0.00,VWS V14.01,2013-08-25 22:43:00,
2013-08-25 18:48:00,84.2,50.3,30.36,SW,229,9.6,10.1,31,0.00,,---,0.00,VWS V14.01,2013-08-25 22:48:00,
2013-08-25 18:53:00,84.2,50.3,30.36,WSW,257,4.0,5.8,31,0.00,,---,0.00,VWS V14.01,2013-08-25 22:53:00,
2013-08-25 18:58:00,83.7,50.7,30.36,SW,231,5.8,7.6,32,0.00,,---,0.00,VWS V14.01,2013-08-25 22:58:00,
2013-08-25 19:03:00,83.8,50.9,30.36,SW,220,8.3,9.6,32,0.00,,---,0.00,VWS V14.01,2013-08-25 23:03:00,
2013-08-25 19:08:00,82.4,50.4,30.36,SSW,195,6.3,7.6,33,0.00,,---,0.00,VWS V14.01,2013-08-25 23:08:00,
2013-08-25 19:13:00,78.4,49.3,30.36,SW,223,8.1,8.1,36,0.00,,---,0.00,VWS V14.01,2013-08-25 23:13:00,
2013-08-25 19:18:00,78.1,49.7,30.36,WNW,284,5.8,5.8,37,0.00,,---,0.00,VWS V14.01,2013-08-25 23:18:00,
2013-08-25 19:23:00,75.7,50.4,30.36,SW,221,8.3,8.7,41,0.00,,---,0.00,VWS V14.01,2013-08-25 23:23:00,
2013-08-25 19:28:00,74.5,49.9,30.36,South,176,3.6,8.1,42,0.00,,---,0.00,VWS V14.01,2013-08-25 23:28:00,
2013-08-25 19:33:00,73.9,50.7,30.36,SW,218,8.1,8.1,44,0.00,,---,0.00,VWS V14.01,2013-08-25 23:33:00,
2013-08-25 19:38:00,73.4,50.8,30.36,West,275,3.6,8.1,45,0.00,,---,0.00,VWS V14.01,2013-08-25 23:38:00,
2013-08-25 19:43:00,73.0,51.1,30.36,SW,218,5.8,8.1,46,0.00,,---,0.00,VWS V14.01,2013-08-25 23:43:00,
2013-08-25 19:48:00,72.9,51.5,30.33,West,262,4.0,7.2,47,0.00,,---,0.00,VWS V14.01,2013-08-25 23:48:00,
2013-08-25 19:53:00,72.7,51.3,30.33,West,265,3.6,4.9,47,0.00,,---,0.00,VWS V14.01,2013-08-25 23:53:00,
2013-08-25 19:58:00,72.5,51.7,30.33,WSW,258,4.5,4.9,48,0.00,,---,0.00,VWS V14.01,2013-08-25 23:58:00,
2013-08-25 20:03:00,72.3,52.1,30.33,SSW,205,5.8,5.8,49,0.00,,---,0.00,VWS V14.01,2013-08-26 00:03:00,
2013-08-25 20:08:00,72.3,51.5,30.33,SW,216,4.0,4.0,48,0.00,,---,0.00,VWS V14.01,2013-08-26 00:08:00,
2013-08-25 20:13:00,72.1,52.5,30.33,WSW,241,5.4,5.4,50,0.00,,---,0.00,VWS V14.01,2013-08-26 00:13:00,
2013-08-25 20:18:00,72.0,52.3,30.33,SSE,151,5.8,8.7,50,0.00,,---,0.00,VWS V14.01,2013-08-26 00:18:00,
2013-08-25 20:23:00,72.0,52.9,30.33,West,260,3.1,5.8,51,0.00,,---,0.00,VWS V14.01,2013-08-26 00:23:00,
2013-08-25 20:28:00,71.8,52.7,30.33,SSW,193,4.9,6.3,51,0.00,,---,0.00,VWS V14.01,2013-08-26 00:28:00,
2013-08-25 20:33:00,71.8,52.7,30.33,WSW,240,5.8,5.8,51,0.00,,---,0.00,VWS V14.01,2013-08-26 00:33:00,
2013-08-25 20:38:00,71.4,52.9,30.33,SSW,202,6.3,6.3,52,0.00,,---,0.00,VWS V14.01,2013-08-26 00:38:00,
2013-08-25 20:43:00,71.6,53.6,30.33,SW,231,4.9,4.9,53,0.00,,---,0.00,VWS V14.01,2013-08-26 00:43:00,
2013-08-25 20:48:00,71.6,53.6,30.33,SW,224,5.4,6.3,53,0.00,,---,0.00,VWS V14.01,2013-08-26 00:48:00,
2013-08-25 20:53:00,71.2,53.8,30.33,WSW,251,4.9,4.9,54,0.00,,---,0.00,VWS V14.01,2013-08-26 00:53:00,
2013-08-25 20:58:00,71.1,53.6,30.33,WSW,256,4.0,4.0,54,0.00,,---,0.00,VWS V14.01,2013-08-26 00:58:00,
2013-08-25 21:03:00,71.2,53.8,30.33,SW,216,3.6,7.2,54,0.00,,---,0.00,VWS V14.01,2013-08-26 01:03:00,
2013-08-25 21:08:00,71.2,52.7,30.33,SW,236,6.3,6.3,52,0.00,,---,0.00,VWS V14.01,2013-08-26 01:08:00,
2013-08-25 21:13:00,71.4,52.9,30.33,West,266,3.1,6.7,52,0.00,,---,0.00,VWS V14.01,2013-08-26 01:13:00,
2013-08-25 21:18:00,71.2,52.7,30.36,SSW,199,5.8,6.3,52,0.00,,---,0.00,VWS V14.01,2013-08-26 01:18:00,
2013-08-25 21:23:00,71.2,53.2,30.36,WSW,240,3.1,4.0,53,0.00,,---,0.00,VWS V14.01,2013-08-26 01:23:00,
2013-08-25 21:29:00,71.1,52.6,30.36,SW,217,6.3,6.3,52,0.00,,---,0.00,VWS V14.01,2013-08-26 01:29:00,
2013-08-25 21:34:00,71.1,53.1,30.36,WSW,250,4.9,7.2,53,0.00,,---,0.00,VWS V14.01,2013-08-26 01:34:00,
2013-08-25 21:39:00,71.2,53.8,30.36,WSW,249,4.0,7.2,54,0.00,,---,0.00,VWS V14.01,2013-08-26 01:39:00,
2013-08-25 21:44:00,71.1,53.6,30.36,SW,234,3.6,3.6,54,0.00,,---,0.00,VWS V14.01,2013-08-26 01:44:00,
2013-08-25 21:49:00,71.1,52.0,30.33,SW,219,7.6,7.6,51,0.00,,---,0.00,VWS V14.01,2013-08-26 01:49:00,
2013-08-25 21:54:00,71.1,52.6,30.33,SSW,209,4.0,4.0,52,0.00,,---,0.00,VWS V14.01,2013-08-26 01:54:00,
2013-08-25 21:59:00,71.1,52.6,30.33,South,178,4.5,6.3,52,0.00,,---,0.00,VWS V14.01,2013-08-26 01:59:00,
2013-08-25 22:04:00,71.1,53.6,30.33,WSW,258,4.0,8.3,54,0.00,,---,0.00,VWS V14.01,2013-08-26 02:04:00,
2013-08-25 22:09:00,71.1,53.6,30.33,SW,216,3.6,7.2,54,0.00,,---,0.00,VWS V14.01,2013-08-26 02:09:00,
2013-08-25 22:14:00,70.9,53.4,30.33,WSW,240,8.3,8.3,54,0.00,,---,0.00,VWS V14.01,2013-08-26 02:14:00,
2013-08-25 22:19:00,70.7,53.8,30.33,WSW,249,5.4,5.4,55,0.00,,---,0.00,VWS V14.01,2013-08-26 02:19:00,
2013-08-25 22:24:00,70.5,53.1,30.33,WSW,253,4.9,8.1,54,0.00,,---,0.00,VWS V14.01,2013-08-26 02:24:00,
2013-08-25 22:29:00,70.3,53.9,30.33,SW,232,7.2,7.2,56,0.00,,---,0.00,VWS V14.01,2013-08-26 02:29:00,
2013-08-25 22:34:00,70.2,54.2,30.36,WSW,254,7.6,7.6,57,0.00,,---,0.00,VWS V14.01,2013-08-26 02:34:00,
2013-08-25 22:39:00,70.2,54.7,30.36,WSW,247,5.4,8.1,58,0.00,,---,0.00,VWS V14.01,2013-08-26 02:39:00,
2013-08-25 22:44:00,70.5,55.5,30.36,WSW,241,5.8,6.3,59,0.00,,---,0.00,VWS V14.01,2013-08-26 02:44:00,
2013-08-25 22:49:00,70.5,56.0,30.36,WSW,250,4.9,6.3,60,0.00,,---,0.00,VWS V14.01,2013-08-26 02:49:00,
2013-08-25 22:54:00,70.3,55.3,30.36,SW,218,3.1,8.1,59,0.00,,---,0.00,VWS V14.01,2013-08-26 02:54:00,
2013-08-25 22:59:00,70.3,56.3,30.36,West,262,8.3,8.3,61,0.00,,---,0.00,VWS V14.01,2013-08-26 02:59:00,
2013-08-25 23:04:00,70.2,56.5,30.36,SW,227,5.4,8.3,62,0.00,,---,0.00,VWS V14.01,2013-08-26 03:04:00,
2013-08-25 23:09:00,70.0,56.4,30.36,West,261,4.9,6.3,62,0.00,,---,0.00,VWS V14.01,2013-08-26 03:09:00,
2013-08-25 23:14:00,70.0,56.4,30.36,WSW,247,4.9,7.2,62,0.00,,---,0.00,VWS V14.01,2013-08-26 03:14:00,
2013-08-25 23:19:00,69.8,56.2,30.36,SW,214,4.0,4.0,62,0.00,,---,0.00,VWS V14.01,2013-08-26 03:19:00,
2013-08-25 23:24:00,69.8,56.2,30.36,WSW,258,5.4,7.2,62,0.00,,---,0.00,VWS V14.01,2013-08-26 03:24:00,
2013-08-25 23:29:00,69.6,56.0,30.36,WSW,256,6.7,6.7,62,0.00,,---,0.00,VWS V14.01,2013-08-26 03:29:00,
2013-08-25 23:34:00,69.6,56.0,30.36,WSW,255,8.1,8.1,62,0.00,,---,0.00,VWS V14.01,2013-08-26 03:34:00,
2013-08-25 23:39:00,69.6,56.5,30.36,SW,236,8.1,8.1,63,0.00,,---,0.00,VWS V14.01,2013-08-26 03:39:00,
2013-08-25 23:44:00,69.4,56.8,30.36,WSW,247,8.7,8.7,64,0.00,,---,0.00,VWS V14.01,2013-08-26 03:44:00,
2013-08-25 23:49:00,69.4,57.2,30.36,West,265,8.3,8.3,65,0.00,,---,0.00,VWS V14.01,2013-08-26 03:49:00,
2013-08-25 23:54:00,69.4,57.2,30.36,WSW,243,8.3,9.6,65,0.00,,---,0.00,VWS V14.01,2013-08-26 03:54:00,
2013-08-25 23:59:00,69.4,57.2,30.36,West,271,5.8,8.3,65,0.00,,---,0.00,VWS V14.01,2013-08-26 03:59:00,